When you browse on this site, cookies collect data to enhance your experience and personalize the content and advertising you see.
Visit our Privacy Policy to learn more. By continuing to use the site, you agree to this use of cookies and data.
  • In Hungary
  • List of Countries
  • For 7 days
  • Water Temperature
  • Weather Map
  • News
  • Weather Widgets
  • user-avatar
    Login

    Hourly Weather Vidogoschi

    Today, 22 January, Wednesday

    Time Temperature Precipitation Wind Pressure Humidity
    00:00 -3°C° 0 mm 6 mps 738 mmHg 78%
    01:00 -2°C° 0 mm 5 mps 739 mmHg 78%
    02:00 -2°C° 0 mm 5 mps 739 mmHg 78%
    03:00 -2°C° 0 mm 5 mps 738 mmHg 79%
    04:00 -2°C° 0 mm 5 mps 737 mmHg 79%
    05:00 -2°C° 0 mm 5 mps 737 mmHg 80%
    06:00 -4°C° 0 mm 5 mps 736 mmHg 81%
    07:00 -4°C° 0 mm 5 mps 736 mmHg 81%
    08:00 -4°C° 0 mm 5 mps 736 mmHg 82%
    09:00 -2°C° 0.1 mm 5 mps 735 mmHg 84%
    10:00 -2°C° 0.1 mm 5 mps 735 mmHg 85%
    11:00 -2°C° 0.1 mm 5 mps 734 mmHg 87%
    12:00 -2°C° 0.2 mm 5 mps 734 mmHg 83%
    13:00 -1°C° 0.2 mm 5 mps 734 mmHg 80%
    14:00 -1°C° 0.2 mm 4 mps 734 mmHg 77%
    15:00 -2°C° 0 mm 4 mps 734 mmHg 78%
    16:00 -3°C° 0 mm 4 mps 734 mmHg 79%
    17:00 -4°C° 0 mm 4 mps 735 mmHg 80%
    18:00 -4°C° 0 mm 4 mps 735 mmHg 80%
    19:00 -4°C° 0 mm 4 mps 736 mmHg 80%
    20:00 -5°C° 0 mm 5 mps 736 mmHg 80%
    21:00 -5°C° 0 mm 5 mps 737 mmHg 82%
    22:00 -5°C° 0 mm 5 mps 737 mmHg 84%
    23:00 -5°C° 0 mm 5 mps 737 mmHg 87%

    Tomorrow, 23 January, Thursday

    Time Temperature Precipitation Wind Pressure Humidity
    00:00 -6°C° 0.1 mm 6 mps 738 mmHg 83%
    01:00 -6°C° 0.1 mm 6 mps 739 mmHg 80%
    02:00 -6°C° 0.1 mm 6 mps 740 mmHg 77%
    03:00 -8°C° 0.1 mm 6 mps 740 mmHg 75%
    04:00 -8°C° 0.1 mm 6 mps 740 mmHg 72%
    05:00 -9°C° 0.1 mm 6 mps 741 mmHg 70%
    06:00 -9°C° 0 mm 6 mps 742 mmHg 69%
    07:00 -9°C° 0 mm 6 mps 743 mmHg 69%
    08:00 -10°C° 0 mm 6 mps 743 mmHg 68%
    09:00 -10°C° 0 mm 6 mps 744 mmHg 65%
    10:00 -8°C° 0 mm 5 mps 744 mmHg 62%
    11:00 -8°C° 0 mm 5 mps 744 mmHg 58%
    12:00 -8°C° 0.1 mm 5 mps 745 mmHg 64%
    13:00 -7°C° 0.1 mm 5 mps 745 mmHg 71%
    14:00 -7°C° 0.1 mm 5 mps 745 mmHg 77%
    15:00 -7°C° 0.2 mm 5 mps 745 mmHg 78%
    16:00 -7°C° 0.2 mm 5 mps 745 mmHg 79%
    17:00 -8°C° 0.2 mm 6 mps 745 mmHg 80%
    18:00 -8°C° 0 mm 5 mps 746 mmHg 77%
    19:00 -8°C° 0 mm 4 mps 746 mmHg 74%
    20:00 -8°C° 0 mm 3 mps 747 mmHg 71%
    21:00 -7°C° 0 mm 2 mps 747 mmHg 74%
    22:00 -7°C° 0 mm 2 mps 747 mmHg 76%
    23:00 -8°C° 0 mm 2 mps 747 mmHg 79%

    Day after tomorrow, 24 January, Friday

    Time Temperature Precipitation Wind Pressure Humidity
    00:00 -7°C° 0 mm 2 mps 747 mmHg 80%
    01:00 -7°C° 0 mm 2 mps 747 mmHg 80%
    02:00 -7°C° 0 mm 2 mps 747 mmHg 81%
    03:00 -7°C° 0 mm 3 mps 746 mmHg 83%
    04:00 -7°C° 0 mm 3 mps 745 mmHg 86%
    05:00 -7°C° 0 mm 4 mps 745 mmHg 88%
    06:00 -5°C° 0.2 mm 4 mps 744 mmHg 88%
    07:00 -6°C° 0.2 mm 5 mps 743 mmHg 89%
    08:00 -5°C° 0.2 mm 5 mps 743 mmHg 90%
    09:00 -5°C° 0.3 mm 5 mps 742 mmHg 91%
    10:00 -4°C° 0.3 mm 5 mps 741 mmHg 92%
    11:00 -4°C° 0.3 mm 5 mps 740 mmHg 93%
    12:00 -2°C° 0.1 mm 5 mps 740 mmHg 93%
    13:00 -2°C° 0.1 mm 5 mps 739 mmHg 93%
    14:00 -1°C° 0.1 mm 4 mps 739 mmHg 93%
    15:00 0°C° 0.2 mm 5 mps 738 mmHg 94%
    16:00 0°C° 0.2 mm 5 mps 738 mmHg 95%
    17:00 +1°C° 0.2 mm 5 mps 738 mmHg 97%
    18:00 0°C° 0.1 mm 4 mps 738 mmHg 95%
    19:00 0°C° 0.1 mm 4 mps 738 mmHg 94%
    20:00 0°C° 0.1 mm 4 mps 739 mmHg 92%
    21:00 0°C° 0 mm 3 mps 739 mmHg 92%
    22:00 0°C° 0 mm 3 mps 739 mmHg 92%
    23:00 -1°C° 0 mm 3 mps 739 mmHg 92%

    25 January, Saturday

    Time Temperature Precipitation Wind Pressure Humidity
    00:00 -1°C° 0 mm 3 mps 739 mmHg 93%
    01:00 -2°C° 0 mm 3 mps 739 mmHg 93%
    02:00 -2°C° 0 mm 3 mps 739 mmHg 94%
    03:00 -2°C° 0 mm 3 mps 738 mmHg 94%
    04:00 -2°C° 0 mm 3 mps 738 mmHg 95%
    05:00 -2°C° 0 mm 3 mps 737 mmHg 95%
    06:00 -1°C° 0 mm 3 mps 737 mmHg 95%
    07:00 -1°C° 0 mm 3 mps 737 mmHg 94%
    08:00 0°C° 0 mm 3 mps 737 mmHg 94%
    09:00 -1°C° 0 mm 4 mps 737 mmHg 90%
    10:00 0°C° 0 mm 4 mps 736 mmHg 87%
    11:00 0°C° 0 mm 5 mps 736 mmHg 83%
    12:00 0°C° 0 mm 5 mps 736 mmHg 80%
    13:00 0°C° 0 mm 5 mps 736 mmHg 77%
    14:00 -1°C° 0 mm 5 mps 735 mmHg 74%
    15:00 -2°C° 0 mm 6 mps 735 mmHg 76%
    16:00 -2°C° 0 mm 6 mps 735 mmHg 77%
    17:00 -3°C° 0 mm 7 mps 735 mmHg 79%
    18:00 -3°C° 0.2 mm 6 mps 735 mmHg 77%
    19:00 -4°C° 0.2 mm 6 mps 736 mmHg 76%
    20:00 -4°C° 0.2 mm 6 mps 736 mmHg 74%
    21:00 -4°C° 0 mm 6 mps 737 mmHg 75%
    22:00 -5°C° 0 mm 6 mps 738 mmHg 75%
    23:00 -5°C° 0 mm 6 mps 739 mmHg 76%

    26 January, Sunday

    Time Temperature Precipitation Wind Pressure Humidity
    00:00 -5°C° 0 mm 6 mps 739 mmHg 75%
    01:00 -5°C° 0 mm 6 mps 740 mmHg 75%
    02:00 -5°C° 0 mm 6 mps 741 mmHg 75%
    03:00 -6°C° 0 mm 6 mps 742 mmHg 75%
    04:00 -6°C° 0 mm 6 mps 742 mmHg 75%
    05:00 -6°C° 0 mm 6 mps 743 mmHg 76%
    06:00 -6°C° 0 mm 5 mps 744 mmHg 76%
    07:00 -6°C° 0 mm 5 mps 745 mmHg 76%
    08:00 -6°C° 0 mm 5 mps 745 mmHg 77%
    09:00 -6°C° 0 mm 5 mps 746 mmHg 76%
    10:00 -6°C° 0 mm 5 mps 747 mmHg 76%
    11:00 -5°C° 0 mm 5 mps 748 mmHg 76%
    12:00 -4°C° 0 mm 4 mps 749 mmHg 75%
    13:00 -4°C° 0 mm 4 mps 750 mmHg 75%
    14:00 -4°C° 0 mm 3 mps 750 mmHg 74%
    15:00 -5°C° 0 mm 3 mps 751 mmHg 79%
    16:00 -4°C° 0 mm 2 mps 751 mmHg 83%
    17:00 -3°C° 0 mm 1 mps 751 mmHg 87%
    18:00 -3°C° 0 mm 1 mps 752 mmHg 88%
    19:00 -3°C° 0 mm 1 mps 752 mmHg 89%
    20:00 -3°C° 0 mm 1 mps 752 mmHg 90%
    21:00 -5°C° 0 mm 2 mps 752 mmHg 90%
    22:00 -5°C° 0 mm 2 mps 752 mmHg 89%
    23:00 -4°C° 0 mm 2 mps 752 mmHg 89%

    27 January, Monday

    Time Temperature Precipitation Wind Pressure Humidity
    00:00 -4°C° 0 mm 2 mps 752 mmHg 87%
    01:00 -5°C° 0 mm 3 mps 751 mmHg 85%
    02:00 -4°C° 0 mm 3 mps 751 mmHg 83%
    03:00 -4°C° 0 mm 3 mps 751 mmHg 86%
    04:00 -4°C° 0 mm 3 mps 750 mmHg 88%
    05:00 -3°C° 0 mm 4 mps 750 mmHg 90%
    06:00 -3°C° 0.2 mm 4 mps 749 mmHg 92%
    07:00 -3°C° 0.2 mm 4 mps 749 mmHg 94%
    08:00 -3°C° 0.2 mm 4 mps 749 mmHg 96%
    09:00 -2°C° 0.3 mm 4 mps 749 mmHg 95%
    10:00 -2°C° 0.3 mm 4 mps 749 mmHg 95%
    11:00 -2°C° 0.3 mm 4 mps 749 mmHg 94%
    12:00 -1°C° 0 mm 4 mps 748 mmHg 92%
    13:00 -1°C° 0 mm 4 mps 748 mmHg 90%
    14:00 -1°C° 0 mm 4 mps 747 mmHg 88%
    15:00 -1°C° 0 mm 5 mps 747 mmHg 89%
    16:00 -2°C° 0 mm 5 mps 747 mmHg 89%
    17:00 -2°C° 0 mm 5 mps 746 mmHg 90%
    18:00 -2°C° 0 mm 5 mps 746 mmHg 88%
    19:00 -2°C° 0 mm 5 mps 745 mmHg 87%
    20:00 -2°C° 0 mm 5 mps 745 mmHg 86%
    21:00 -1°C° 0 mm 5 mps 745 mmHg 88%
    22:00 -1°C° 0 mm 5 mps 745 mmHg 90%
    23:00 -1°C° 0 mm 5 mps 745 mmHg 92%
    Show more